CDT,Max TemperatureF,Mean TemperatureF,Min TemperatureF,Max Dew PointF,MeanDew PointF,Min DewpointF,Max Humidity, Mean Humidity, Min Humidity, Max Sea Level PressureIn, Mean Sea Level PressureIn, Min Sea Level PressureIn, Max VisibilityMiles, Mean VisibilityMiles, Min VisibilityMiles, Max Wind SpeedMPH, Mean Wind SpeedMPH, Max Gust SpeedMPH,PrecipitationIn, CloudCover, Events, WindDirDegrees
2013-4-1,30,22,15,18,14,10,86,69,51,30.25,30.20,30.07,10,10,10,20,13,25,0.00,0,,301
2013-4-2,33,25,17,18,16,12,93,68,41,30.35,30.29,30.24,10,10,10,15,8,22,0.00,0,,298
2013-4-3,42,30,17,30,23,16,93,72,52,30.40,30.28,30.07,10,10,7,18,5,25,0.00,0,,174
2013-4-4,48,39,28,34,28,23,87,63,46,30.16,30.06,30.01,10,10,7,17,11,22,0.00,1,Rain,281
2013-4-5,41,32,24,25,21,18,86,69,52,30.23,30.20,30.14,10,10,10,10,6,,0.00,0,,46
2013-4-6,53,44,35,45,38,28,100,82,66,29.74,29.59,29.48,10,8,3,18,10,23,0.00,6,,322
2013-4-7,46,40,33,39,34,30,100,84,71,29.94,29.84,29.75,10,8,4,12,6,,0.00,7,,203
2013-4-8,46,42,37,43,39,37,100,94,81,30.02,29.80,29.67,10,4,2,13,7,21,0.00,8,,42
2013-4-9,39,34,30,37,33,27,100,90,70,30.13,30.03,29.94,10,8,1,23,13,30,0.00,8,,33
2013-4-10,35,32,28,30,27,21,100,81,60,30.17,30.01,29.88,10,8,1,28,14,38,0.00,8,,55
2013-4-11,35,32,28,32,29,23,100,90,60,29.88,29.72,29.65,10,4,0,22,12,31,0.00,8,,60
2013-4-12,33,30,26,28,27,25,100,90,75,29.83,29.72,29.65,10,6,2,13,8,,0.00,8,Snow,314
2013-4-13,35,30,26,27,25,21,100,81,60,29.95,29.88,29.83,10,9,2,15,7,20,0.00,8,Snow,270
2013-4-14,35,32,28,34,29,23,100,92,75,29.94,29.69,29.46,10,6,1,24,10,29,0.00,8,Snow,95
2013-4-15,37,34,30,32,27,23,93,76,65,29.98,29.73,29.55,10,10,10,22,10,30,0.00,4,,236
2013-4-16,42,36,30,28,27,25,87,73,53,30.31,30.17,29.98,10,10,10,20,10,21,0.00,4,,281
2013-4-17,37,34,32,34,30,27,100,87,75,30.31,30.14,29.88,10,8,2,18,6,24,0.00,6,Rain-Snow,57
2013-4-18,33,30,28,34,30,28,100,97,93,29.90,29.64,29.48,10,4,0,25,13,32,0.00,8,Rain-Snow,352
2013-4-19,35,30,26,28,24,18,100,78,52,29.97,29.67,29.46,10,7,1,28,18,34,0.00,6,Snow,312
2013-4-20,37,27,17,25,16,10,86,60,35,30.29,30.22,30.04,10,10,10,9,4,,0.00,0,,304
2013-4-21,48,39,30,46,36,19,100,88,60,30.30,30.16,30.03,10,8,2,22,9,29,0.00,7,Rain-Snow,157
2013-4-22,39,34,30,37,32,30,100,92,75,30.20,30.14,30.09,10,5,1,15,8,18,0.00,8,Rain-Snow,359
2013-4-23,37,32,26,30,24,19,100,76,52,30.14,30.10,30.05,10,9,2,15,12,21,0.00,3,Snow,308
2013-4-24,46,35,24,34,27,21,100,76,49,30.07,29.99,29.90,10,10,4,18,6,28,0.00,2,Rain,245
2013-4-25,48,39,30,34,29,25,93,72,43,30.22,30.12,29.99,10,10,4,16,10,22,0.00,4,Snow,239
2013-4-26,69,55,41,45,39,30,81,59,35,30.14,30.04,29.98,10,10,7,16,8,24,0.00,1,Rain,223
2013-4-27,71,53,35,48,42,34,93,62,31,30.14,30.04,29.92,10,10,7,13,4,18,0.00,0,,186
2013-4-28,78,63,48,54,47,43,94,63,32,29.91,29.79,29.65,10,10,7,20,10,31,0.00,1,Rain-Thunderstorm,196
2013-4-29,71,60,48,57,49,37,100,69,43,29.81,29.71,29.56,10,10,10,14,4,17,0.00,1,Thunderstorm,111
2013-4-30,69,61,53,57,46,28,94,60,29,29.97,29.65,29.43,10,10,7,20,8,29,0.00,1,Thunderstorm,252